Time,TemperatureF,DewpointF,PressureIn,WindDirection,WindDirectionDegrees,WindSpeedMPH,WindSpeedGustMPH,Humidity,HourlyPrecipIn,Conditions,Clouds,dailyrainin,SolarRadiationWatts/m^2,SoftwareType,DateUTC
2013-10-22 00:05:00,30.0,25.0,29.94,WNW,300,6.0,6.0,81,0.00,,,0.00,0,weatherlink.com 1.10,2013-10-22 05:05:00,
2013-10-22 00:20:00,29.8,25.0,29.94,WNW,300,6.0,7.0,81,0.00,,,0.00,0,weatherlink.com 1.10,2013-10-22 05:20:00,
2013-10-22 00:35:00,29.0,25.0,29.94,WNW,300,3.0,6.0,83,0.00,,,0.00,0,weatherlink.com 1.10,2013-10-22 05:35:00,
2013-10-22 00:50:00,29.4,25.0,29.94,WNW,300,0.0,4.0,83,0.00,,,0.00,0,weatherlink.com 1.10,2013-10-22 05:50:00,
2013-10-22 01:05:00,29.2,24.0,29.95,WNW,300,4.0,6.0,81,0.00,,,0.00,0,weatherlink.com 1.10,2013-10-22 06:05:00,
2013-10-22 01:20:00,29.3,24.0,29.95,WNW,300,0.0,5.0,82,0.00,,,0.00,0,weatherlink.com 1.10,2013-10-22 06:20:00,
2013-10-22 01:35:00,29.7,25.0,29.95,WNW,300,0.0,4.0,81,0.00,,,0.00,0,weatherlink.com 1.10,2013-10-22 06:35:00,
2013-10-22 01:50:00,29.2,24.0,29.94,WNW,300,0.0,3.0,81,0.00,,,0.00,0,weatherlink.com 1.10,2013-10-22 06:50:00,
2013-10-22 02:05:00,28.4,23.0,29.95,WNW,300,0.0,3.0,81,0.00,,,0.00,0,weatherlink.com 1.10,2013-10-22 07:05:00,
2013-10-22 02:20:00,28.3,24.0,29.95,WNW,300,0.0,3.0,83,0.00,,,0.00,0,weatherlink.com 1.10,2013-10-22 07:20:00,
2013-10-22 02:36:00,27.8,23.0,29.95,WNW,300,2.0,5.0,83,0.00,,,0.00,0,weatherlink.com 1.10,2013-10-22 07:36:00,
2013-10-22 02:51:00,28.5,24.0,29.95,WNW,300,0.0,4.0,83,0.00,,,0.00,0,weatherlink.com 1.10,2013-10-22 07:51:00,
2013-10-22 03:06:00,29.3,24.0,29.95,WNW,300,2.0,5.0,82,0.00,,,0.00,0,weatherlink.com 1.10,2013-10-22 08:06:00,
2013-10-22 03:21:00,29.2,25.0,29.95,WNW,300,1.0,4.0,83,0.00,,,0.00,0,weatherlink.com 1.10,2013-10-22 08:21:00,
2013-10-22 03:36:00,28.6,24.0,29.95,WNW,300,0.0,2.0,83,0.00,,,0.00,0,weatherlink.com 1.10,2013-10-22 08:36:00,
2013-10-22 03:51:00,28.1,24.0,29.95,WNW,300,0.0,0.0,84,0.00,,,0.00,0,weatherlink.com 1.10,2013-10-22 08:51:00,
2013-10-22 04:06:00,28.0,24.0,29.94,WNW,300,0.0,0.0,84,0.00,,,0.00,0,weatherlink.com 1.10,2013-10-22 09:06:00,
2013-10-22 04:21:00,27.5,23.0,29.95,WNW,300,0.0,0.0,84,0.00,,,0.00,0,weatherlink.com 1.10,2013-10-22 09:21:00,
2013-10-22 04:36:00,27.2,23.0,29.94,WNW,300,0.0,0.0,85,0.00,,,0.00,0,weatherlink.com 1.10,2013-10-22 09:36:00,
2013-10-22 04:51:00,27.4,24.0,29.94,WNW,300,0.0,0.0,85,0.00,,,0.00,0,weatherlink.com 1.10,2013-10-22 09:51:00,
2013-10-22 05:06:00,27.5,24.0,29.94,WNW,300,0.0,0.0,85,0.00,,,0.00,0,weatherlink.com 1.10,2013-10-22 10:06:00,
2013-10-22 05:21:00,28.1,25.0,29.95,WNW,300,0.0,0.0,86,0.00,,,0.00,0,weatherlink.com 1.10,2013-10-22 10:21:00,
2013-10-22 05:36:00,28.2,24.0,29.94,WNW,300,0.0,0.0,84,0.00,,,0.00,0,weatherlink.com 1.10,2013-10-22 10:36:00,
2013-10-22 05:51:00,27.3,23.0,29.94,WNW,300,1.0,2.0,84,0.00,,,0.00,0,weatherlink.com 1.10,2013-10-22 10:51:00,
2013-10-22 06:06:00,27.3,24.0,29.94,WNW,300,0.0,1.0,86,0.00,,,0.00,0,weatherlink.com 1.10,2013-10-22 11:06:00,
2013-10-22 06:21:00,27.5,24.0,29.94,WNW,300,0.0,0.0,87,0.00,,,0.00,0,weatherlink.com 1.10,2013-10-22 11:21:00,
2013-10-22 06:36:00,27.1,24.0,29.94,WNW,300,0.0,0.0,86,0.00,,,0.00,0,weatherlink.com 1.10,2013-10-22 11:36:00,
2013-10-22 06:51:00,26.8,23.0,29.94,WNW,300,0.0,0.0,86,0.00,,,0.00,0,weatherlink.com 1.10,2013-10-22 11:51:00,
2013-10-22 07:06:00,26.4,23.0,29.93,WNW,300,0.0,0.0,87,0.00,,,0.00,0,weatherlink.com 1.10,2013-10-22 12:06:00,
2013-10-22 07:21:00,26.8,24.0,29.94,WNW,300,0.0,0.0,87,0.00,,,0.00,5,weatherlink.com 1.10,2013-10-22 12:21:00,
2013-10-22 07:36:00,26.8,24.0,29.94,WNW,300,0.0,0.0,87,0.00,,,0.00,11,weatherlink.com 1.10,2013-10-22 12:36:00,
2013-10-22 07:51:00,26.9,24.0,29.95,WNW,300,3.0,4.0,88,0.00,,,0.00,21,weatherlink.com 1.10,2013-10-22 12:51:00,
2013-10-22 08:06:00,27.4,24.0,29.95,WNW,300,0.0,3.0,88,0.00,,,0.00,40,weatherlink.com 1.10,2013-10-22 13:06:00,
2013-10-22 08:21:00,28.3,26.0,29.95,WNW,300,2.0,2.0,89,0.00,,,0.00,51,weatherlink.com 1.10,2013-10-22 13:21:00,
2013-10-22 08:36:00,29.5,27.0,29.95,WNW,300,1.0,2.0,89,0.00,,,0.00,67,weatherlink.com 1.10,2013-10-22 13:36:00,
2013-10-22 08:51:00,30.4,28.0,29.95,WNW,300,0.0,1.0,89,0.00,,,0.00,79,weatherlink.com 1.10,2013-10-22 13:51:00,
2013-10-22 09:06:00,31.1,28.0,29.95,WNW,300,0.0,0.0,88,0.00,,,0.00,77,weatherlink.com 1.10,2013-10-22 14:06:00,
2013-10-22 09:21:00,31.7,29.0,29.95,WNW,300,0.0,0.0,88,0.00,,,0.00,74,weatherlink.com 1.10,2013-10-22 14:21:00,
2013-10-22 09:36:00,32.5,29.0,29.95,WNW,300,0.0,2.0,88,0.00,,,0.00,116,weatherlink.com 1.10,2013-10-22 14:36:00,
2013-10-22 09:51:00,33.3,30.0,29.95,WNW,300,0.0,2.0,87,0.00,,,0.00,130,weatherlink.com 1.10,2013-10-22 14:51:00,
2013-10-22 10:06:00,34.4,29.0,29.95,WNW,300,0.0,2.0,81,0.00,,,0.00,165,weatherlink.com 1.10,2013-10-22 15:06:00,
2013-10-22 10:21:00,35.1,27.0,29.95,WNW,300,0.0,0.0,71,0.00,,,0.00,216,weatherlink.com 1.10,2013-10-22 15:21:00,
2013-10-22 10:36:00,35.7,27.0,29.94,WNW,300,0.0,1.0,71,0.00,,,0.00,204,weatherlink.com 1.10,2013-10-22 15:36:00,
2013-10-22 10:51:00,35.9,27.0,29.94,WNW,300,0.0,4.0,70,0.00,,,0.00,176,weatherlink.com 1.10,2013-10-22 15:51:00,
2013-10-22 11:06:00,36.2,28.0,29.94,WNW,300,2.0,4.0,72,0.00,,,0.00,167,weatherlink.com 1.10,2013-10-22 16:06:00,
2013-10-22 11:21:00,36.4,28.0,29.94,WNW,300,0.0,2.0,71,0.00,,,0.00,200,weatherlink.com 1.10,2013-10-22 16:21:00,
2013-10-22 11:51:00,37.0,27.0,29.93,WNW,300,1.0,4.0,68,0.00,,,0.00,206,weatherlink.com 1.10,2013-10-22 16:51:00,
2013-10-22 12:06:00,37.1,27.0,29.93,WNW,300,1.0,4.0,66,0.00,,,0.00,236,weatherlink.com 1.10,2013-10-22 17:06:00,
2013-10-22 12:21:00,37.7,27.0,29.93,WNW,300,2.0,3.0,65,0.00,,,0.00,297,weatherlink.com 1.10,2013-10-22 17:21:00,
2013-10-22 12:37:00,38.3,27.0,29.92,WNW,300,0.0,1.0,64,0.00,,,0.00,348,weatherlink.com 1.10,2013-10-22 17:37:00,
2013-10-22 12:52:00,39.1,27.0,29.92,ENE,67,0.0,5.0,63,0.00,,,0.00,462,weatherlink.com 1.10,2013-10-22 17:52:00,
2013-10-22 13:07:00,39.5,28.0,29.91,ESE,120,0.0,5.0,64,0.00,,,0.00,380,weatherlink.com 1.10,2013-10-22 18:07:00,
2013-10-22 13:22:00,39.7,28.0,29.90,ESE,123,3.0,5.0,64,0.00,,,0.00,315,weatherlink.com 1.10,2013-10-22 18:22:00,
2013-10-22 13:37:00,39.8,29.0,29.90,SE,139,6.0,7.0,65,0.00,,,0.00,279,weatherlink.com 1.10,2013-10-22 18:37:00,
2013-10-22 13:52:00,39.5,28.0,29.89,SE,138,3.0,4.0,64,0.00,,,0.00,197,weatherlink.com 1.10,2013-10-22 18:52:00,
2013-10-22 14:07:00,39.6,29.0,29.89,SE,138,0.0,0.0,65,0.00,,,0.00,195,weatherlink.com 1.10,2013-10-22 19:07:00,
2013-10-22 14:22:00,39.8,28.0,29.89,SE,138,1.0,4.0,64,0.00,,,0.00,160,weatherlink.com 1.10,2013-10-22 19:22:00,
2013-10-22 14:37:00,40.2,29.0,29.89,SE,138,2.0,5.0,64,0.00,,,0.00,227,weatherlink.com 1.10,2013-10-22 19:37:00,
2013-10-22 14:52:00,40.5,28.0,29.88,SE,138,4.0,4.0,62,0.00,,,0.00,213,weatherlink.com 1.10,2013-10-22 19:52:00,
2013-10-22 15:07:00,40.9,29.0,29.89,South,172,2.0,5.0,62,0.00,,,0.00,206,weatherlink.com 1.10,2013-10-22 20:07:00,
2013-10-22 15:22:00,41.1,29.0,29.88,NNE,15,0.0,6.0,63,0.00,,,0.00,195,weatherlink.com 1.10,2013-10-22 20:22:00,
2013-10-22 15:37:00,41.3,29.0,29.88,NNE,13,2.0,6.0,61,0.00,,,0.00,193,weatherlink.com 1.10,2013-10-22 20:37:00,
2013-10-22 15:52:00,41.4,29.0,29.89,North,355,0.0,6.0,61,0.00,,,0.00,237,weatherlink.com 1.10,2013-10-22 20:52:00,
2013-10-22 16:07:00,41.3,26.0,29.89,NW,326,5.0,8.0,55,0.00,,,0.00,142,weatherlink.com 1.10,2013-10-22 21:07:00,
2013-10-22 16:22:00,40.9,25.0,29.89,NW,321,0.0,6.0,54,0.00,,,0.00,93,weatherlink.com 1.10,2013-10-22 21:22:00,
2013-10-22 16:37:00,41.1,25.0,29.90,NW,320,5.0,7.0,54,0.00,,,0.00,209,weatherlink.com 1.10,2013-10-22 21:37:00,
2013-10-22 16:52:00,41.3,26.0,29.90,NW,322,3.0,7.0,54,0.00,,,0.00,104,weatherlink.com 1.10,2013-10-22 21:52:00,
2013-10-22 17:07:00,40.9,25.0,29.90,NW,319,0.0,3.0,54,0.00,,,0.00,62,weatherlink.com 1.10,2013-10-22 22:07:00,
2013-10-22 17:22:00,40.6,25.0,29.91,NW,319,1.0,4.0,55,0.00,,,0.00,35,weatherlink.com 1.10,2013-10-22 22:22:00,
2013-10-22 17:37:00,40.3,26.0,29.91,NW,319,0.0,0.0,56,0.00,,,0.00,28,weatherlink.com 1.10,2013-10-22 22:37:00,
2013-10-22 17:52:00,39.8,26.0,29.91,NW,319,0.0,0.0,58,0.00,,,0.00,12,weatherlink.com 1.10,2013-10-22 22:52:00,
2013-10-22 18:07:00,39.2,26.0,29.91,NW,319,0.0,0.0,60,0.00,,,0.00,0,weatherlink.com 1.10,2013-10-22 23:07:00,
2013-10-22 18:22:00,38.8,27.0,29.91,NW,319,0.0,0.0,62,0.00,,,0.00,0,weatherlink.com 1.10,2013-10-22 23:22:00,
2013-10-22 18:37:00,38.4,27.0,29.91,NW,319,0.0,0.0,63,0.00,,,0.00,0,weatherlink.com 1.10,2013-10-22 23:37:00,
2013-10-22 18:52:00,37.8,27.0,29.91,NW,319,0.0,0.0,65,0.00,,,0.00,0,weatherlink.com 1.10,2013-10-22 23:52:00,
2013-10-22 19:07:00,36.6,27.0,29.92,NW,319,0.0,0.0,68,0.00,,,0.00,0,weatherlink.com 1.10,2013-10-23 00:07:00,
2013-10-22 19:22:00,36.0,27.0,29.92,NW,319,2.0,4.0,69,0.00,,,0.00,0,weatherlink.com 1.10,2013-10-23 00:22:00,
2013-10-22 19:37:00,35.5,27.0,29.92,NW,319,4.0,4.0,70,0.00,,,0.00,0,weatherlink.com 1.10,2013-10-23 00:37:00,
2013-10-22 19:52:00,34.4,26.0,29.93,NW,319,4.0,5.0,72,0.00,,,0.00,0,weatherlink.com 1.10,2013-10-23 00:52:00,
2013-10-22 20:07:00,33.6,26.0,29.93,NW,319,5.0,6.0,75,0.00,,,0.00,0,weatherlink.com 1.10,2013-10-23 01:07:00,
2013-10-22 20:22:00,33.3,27.0,29.92,NW,319,6.0,6.0,76,0.00,,,0.00,0,weatherlink.com 1.10,2013-10-23 01:22:00,
2013-10-22 20:37:00,32.6,26.0,29.93,NW,319,5.0,6.0,78,0.00,,,0.00,0,weatherlink.com 1.10,2013-10-23 01:37:00,
2013-10-22 20:52:00,32.0,26.0,29.93,NW,319,4.0,6.0,78,0.00,,,0.00,0,weatherlink.com 1.10,2013-10-23 01:52:00,
2013-10-22 21:07:00,32.1,27.0,29.93,NW,318,5.0,6.0,80,0.00,,,0.00,0,weatherlink.com 1.10,2013-10-23 02:07:00,
2013-10-22 21:22:00,32.1,27.0,29.93,NW,318,4.0,5.0,80,0.00,,,0.00,0,weatherlink.com 1.10,2013-10-23 02:22:00,
2013-10-22 21:37:00,31.8,26.0,29.93,NW,313,6.0,7.0,80,0.00,,,0.00,0,weatherlink.com 1.10,2013-10-23 02:37:00,
2013-10-22 21:52:00,32.0,27.0,29.93,NW,304,6.0,8.0,81,0.00,,,0.00,0,weatherlink.com 1.10,2013-10-23 02:52:00,
2013-10-22 22:07:00,32.0,27.0,29.93,WNW,302,8.0,10.0,82,0.00,,,0.00,0,weatherlink.com 1.10,2013-10-23 03:07:00,
2013-10-22 22:22:00,31.9,27.0,29.94,NW,323,5.0,10.0,81,0.00,,,0.00,0,weatherlink.com 1.10,2013-10-23 03:22:00,
2013-10-22 22:37:00,33.0,28.0,29.94,NW,325,7.0,11.0,81,0.00,,,0.00,0,weatherlink.com 1.10,2013-10-23 03:37:00,
2013-10-22 22:52:00,33.7,28.0,29.94,NNW,327,8.0,12.0,80,0.00,,,0.00,0,weatherlink.com 1.10,2013-10-23 03:52:00,
2013-10-22 23:07:00,33.1,28.0,29.94,NNW,327,8.0,11.0,80,0.00,,,0.00,0,weatherlink.com 1.10,2013-10-23 04:07:00,
2013-10-22 23:22:00,32.8,28.0,29.94,NW,325,4.0,10.0,81,0.00,,,0.00,0,weatherlink.com 1.10,2013-10-23 04:22:00,
2013-10-22 23:37:00,32.0,27.0,29.95,NW,326,3.0,8.0,81,0.00,,,0.00,0,weatherlink.com 1.10,2013-10-23 04:37:00,
2013-10-22 23:53:00,31.2,26.0,29.94,NNW,327,3.0,7.0,82,0.00,,,0.00,0,weatherlink.com 1.10,2013-10-23 04:53:00,